Temp
16 16 16 16 16 16 16 16 16 16 16 16 16 16 16 16 16 16 16 16 16 16 16 16 16 16 16 16 16 16 15 15 15 15 16 15 16 15 15 16 16 16 15 15 15 16 16 16 15 15 16 16 16 16 16 16 16 17 17 17 17 17 17 18 18 16 15 14 14 14 13 13 14 14 13 13 12 12 12 12 11 12 12 12 12
17 17 16 16 16 16 16 16 16 16 16 16 17 17 16 16 16 16 16 16 16 16 16 16 16 16 16 16 16 16 16 16 15 16 16 15 15 15 15 16 16 16 16 16 16 16 16 16 16 15 15 16 16 17 17 17 17 17 17 17 17 17 17 18 18 17 16 14 14 14 13 13 14 13 13 12 12 12 13 12 12 12 12 12 12
17 17 16 16 16 16 16 16 16 16 16 16 17 17 17 16 16 16 16 16 16 16 16 16 16 16 16 16 16 16 16 16 15 16 16 15 15 15 15 16 16 16 16 16 16 16 15 16 15 15 15 15 16 16 16 16 17 17 16 16 16 16 16 17 17 17 16 15 15 15 14 13 13 14 13 12 12 12 13 13 12 12 12 11 12
16 16 16 16 16 16 16 16 16 16 16 17 17 17 17 16 16 16 16 16 16 16 16 16 16 16 16 16 16 16 16 16 15 16 16 16 16 15 15 16 16 16 16 16 16 16 16 16 15 15 15 15 15 15 15 16 16 16 16 16 15 15 15 15 16 17 16 16 15 15 15 13 13 14 13 13 13 12 13 13 12 12 12 11 12
16 16 16 16 16 16 16 16 16 16 16 17 17 17 17 16 16 16 17 16 16 16 16 16 16 16 16 17 17 16 16 16 16 16 15 15 16 16 16 15 15 16 16 16 16 16 15 15 15 15 15 15 15 15 15 15 16 16 16 16 16 15 14 15 15 16 16 16 15 14 14 14 14 13 13 13 14 14 14 13 13 12 12 11 11
16 16 16 16 16 16 16 16 16 15 16 17 17 17 17 16 16 16 17 17 16 16 16 16 16 17 17 17 17 17 16 16 16 16 16 15 15 15 15 15 15 15 15 15 15 15 15 15 15 15 15 15 15 15 15 14 15 15 15 15 16 15 14 15 15 15 15 16 15 14 14 14 14 14 13 13 13 14 13 13 13 13 12 12 11
16 16 16 16 16 16 15 16 16 16 16 16 16 17 17 16 16 16 17 17 16 16 16 16 16 16 17 17 17 17 16 16 16 16 16 15 15 15 15 15 15 15 15 15 15 15 15 15 15 15 15 15 15 14 14 14 14 14 14 14 14 14 14 15 15 15 15 15 15 15 14 14 13 14 14 13 13 13 13 12 13 13 12 12 12
16 16 16 16 16 15 15 15 16 16 16 16 16 16 16 16 16 16 16 16 16 16 16 16 15 15 16 16 16 16 16 16 16 16 16 16 15 15 15 15 15 15 15 15 15 15 15 15 15 15 14 14 14 14 14 13 13 13 13 13 13 14 14 14 14 15 15 15 15 15 15 15 14 14 13 13 13 13 12 11 12 12 12 12 12
16 16 16 16 15 15 15 15 16 16 16 16 16 16 16 16 16 16 16 16 16 16 16 16 15 15 15 15 15 15 15 16 16 15 16 15 15 15 15 15 15 15 15 15 15 15 15 15 15 15 14 14 14 13 13 13 13 13 12 13 13 13 14 14 14 15 15 15 16 15 15 15 15 14 13 13 12 12 11 11 11 12 12 12 12
16 16 16 16 15 15 15 15 16 16 16 16 16 16 16 16 15 16 16 16 16 16 16 15 15 15 15 15 15 15 15 15 15 15 15 15 15 15 14 14 15 15 15 15 15 15 15 15 14 14 14 13 13 13 13 13 13 13 13 13 13 13 13 14 14 15 15 15 15 15 14 15 14 13 12 12 11 11 11 11 11 11 11 11 12
16 16 16 16 16 16 16 15 15 16 16 16 16 16 16 16 15 15 16 15 15 15 15 15 15 15 15 15 15 15 14 15 15 15 15 15 15 14 14 14 14 14 14 15 15 15 15 15 14 13 13 13 13 13 12 12 12 12 12 12 12 13 13 13 14 14 14 14 14 13 13 13 13 12 12 12 11 10 10 10 10 11 11 11 11
15 15 15 16 16 16 16 16 16 16 15 15 15 15 15 15 15 15 15 15 15 14 14 15 15 15 15 15 15 15 15 15 15 15 15 15 14 14 14 14 14 14 14 14 15 15 15 15 14 13 13 13 12 12 12 12 12 11 11 11 11 12 12 12 13 13 13 13 13 12 12 12 12 12 11 10 10 10 9 10 10 10 10 10 10
16 16 16 16 16 15 16 16 16 15 15 15 15 15 15 15 15 15 15 14 14 14 14 14 14 14 14 15 14 14 14 14 14 14 15 14 14 14 14 14 14 14 14 14 14 14 14 14 14 13 13 12 12 12 12 11 11 11 11 11 11 11 11 11 11 12 11 11 11 12 11 11 11 11 10 8 8 8 9 9 10 9 9 9 9
16 16 16 16 16 16 16 16 16 15 15 15 15 15 15 15 14 14 14 13 13 13 14 14 14 14 14 14 14 14 14 14 13 14 14 14 14 14 14 13 13 13 14 14 14 14 14 14 14 14 13 12 12 13 12 11 11 11 10 10 10 10 10 10 10 10 10 10 10 11 10 9 10 9 8 7 7 8 8 8 8 8 8 8 8
15 15 15 16 16 16 16 16 16 16 15 15 15 15 15 15 14 14 14 13 13 13 14 13 13 13 14 14 14 14 13 13 13 13 13 13 13 13 13 13 13 14 14 14 14 14 14 14 14 14 13 13 12 12 12 11 10 10 10 10 9 9 9 9 9 9 9 9 9 9 8 8 8 8 7 7 6 6 6 6 6 6 6 6 7
15 15 15 15 15 15 15 15 15 15 15 15 15 15 15 15 14 14 13 13 12 13 13 13 13 13 13 13 13 14 13 13 13 13 13 13 13 13 13 13 13 14 14 13 13 13 13 13 14 14 14 13 12 12 11 10 10 10 10 10 9 9 9 9 9 9 9 9 8 8 8 7 7 7 7 6 6 5 5 6 6 7 7 8 8
15 15 15 15 15 15 15 15 15 15 15 15 15 15 15 15 14 14 13 13 13 13 13 14 13 13 13 13 13 13 13 13 13 13 13 13 13 13 13 14 15 14 13 13 13 12 12 13 13 13 13 12 12 11 11 10 11 11 10 10 9 8 9 9 9 8 8 8 8 8 7 7 7 7 6 6 5 5 4 6 7 7 8 8 9
14 14 14 14 14 14 14 15 15 15 15 15 15 15 15 15 15 14 14 14 14 14 14 13 13 13 13 12 13 13 13 13 13 13 13 14 14 14 15 15 15 14 13 13 13 12 12 12 12 12 12 12 12 12 11 10 11 11 10 10 9 9 8 8 8 8 7 7 7 7 7 6 6 6 5 5 5 4 4 5 6 6 7 8 8
13 13 13 13 13 14 14 14 14 14 15 15 14 14 14 15 15 14 14 14 14 13 13 13 13 13 13 13 13 13 13 13 14 14 14 14 14 14 15 15 15 14 14 13 12 12 12 12 12 12 12 12 12 11 11 10 11 11 10 10 10 9 8 7 7 7 7 7 6 6 6 6 5 5 5 4 4 4 3 4 5 6 6 7 7
11 12 12 12 13 13 13 13 13 14 14 14 14 14 14 15 15 14 15 15 15 14 13 13 13 13 13 13 13 13 13 14 14 14 14 14 14 14 15 15 15 14 14 13 13 12 11 11 11 11 12 12 11 10 10 10 10 10 10 11 10 9 8 7 7 7 7 6 6 6 6 6 5 5 5 5 4 4 4 4 4 5 5 6 6
10 11 11 11 12 12 13 13 13 13 13 14 14 13 14 14 14 15 15 16 15 15 14 14 14 13 13 13 13 14 14 14 14 14 14 14 14 14 14 15 15 14 14 13 13 12 11 10 11 11 11 11 10 10 10 9 10 10 10 10 9 8 7 7 6 6 6 6 6 7 7 7 7 6 6 6 6 5 5 4 4 4 5 5 6
9 10 10 11 11 11 12 12 12 12 12 13 13 13 14 14 14 14 15 15 15 14 14 14 14 14 13 13 13 14 14 14 14 14 14 14 14 14 14 14 14 14 14 13 13 12 10 9 10 10 10 10 10 9 9 9 9 9 9 8 8 7 7 7 7 7 7 7 7 7 7 7 7 7 7 6 6 5 5 4 4 4 5 5 5
9 9 9 10 10 10 11 11 11 11 12 12 13 13 14 14 13 14 14 14 14 14 14 14 14 13 13 13 12 13 13 13 13 13 13 13 13 13 13 13 12 13 13 13 12 11 9 9 9 9 8 9 9 8 8 8 8 8 8 7 7 7 7 6 6 7 7 7 7 7 7 7 7 7 6 6 5 4 3 3 3 3 3 3 3
8 8 8 9 9 10 10 11 11 11 12 12 12 13 13 13 13 14 14 14 14 14 14 14 14 13 13 12 12 12 13 13 13 13 13 13 12 12 12 11 11 12 12 12 11 10 9 9 9 8 8 8 8 7 7 7 7 7 7 6 6 6 6 6 6 6 7 7 7 7 7 6 6 6 5 4 3 2 2 2 2 2 2 2 2
7 8 8 8 9 9 10 10 11 11 11 12 12 12 13 13 13 14 14 14 14 15 14 14 14 14 13 12 11 12 12 12 12 12 12 12 11 11 11 10 10 11 11 11 10 10 9 9 8 7 7 7 7 6 6 6 6 6 6 6 6 6 6 6 6 6 7 7 7 6 6 6 5 4 4 3 2 1 1 2 2 2 1 1 1
6 6 7 8 8 9 9 10 10 11 11 11 12 12 13 13 13 14 14 14 14 15 15 14 14 14 14 13 12 12 11 11 11 11 11 11 11 10 10 10 10 10 10 10 10 9 9 8 7 6 6 6 5 5 6 6 5 5 5 5 6 6 6 6 6 6 6 6 6 6 5 5 5 4 4 3 2 2 2 2 2 2 2 2 2
5 5 6 7 7 8 9 9 10 10 11 11 12 12 12 13 13 13 14 14 14 14 14 14 14 15 14 14 13 12 11 10 10 10 10 10 10 10 10 9 9 9 9 9 9 8 7 6 6 5 5 5 5 5 5 5 5 5 5 5 5 5 5 5 5 5 5 5 5 5 5 4 5 5 5 4 3 3 2 2 2 2 2 2 2
5 5 5 5 6 7 8 9 9 10 10 11 11 12 12 13 13 13 13 14 14 14 14 14 14 14 14 14 13 12 12 11 11 11 10 10 10 9 9 9 9 8 8 7 7 6 6 5 5 5 5 5 5 5 5 5 5 5 5 6 5 5 4 4 4 5 5 5 5 4 4 4 4 5 4 4 3 3 3 2 2 2 2 2 2
4 4 4 5 5 6 7 7 8 9 10 10 11 12 12 12 12 12 13 13 13 13 13 12 12 12 12 12 12 12 11 11 11 12 11 10 10 9 8 9 9 8 7 7 6 5 5 5 5 5 6 6 6 6 6 6 6 5 5 5 5 5 5 5 5 5 5 4 4 4 4 4 4 3 3 3 3 2 2 2 2 2 1 1 1
4 4 4 4 5 6 6 7 7 8 9 10 10 11 11 10 10 11 11 11 11 12 11 11 10 10 11 10 10 10 11 11 11 12 11 10 10 9 9 9 9 8 8 7 6 6 6 6 6 6 6 7 7 7 7 6 6 5 5 4 5 5 5 5 5 5 4 3 3 4 4 4 3 3 2 2 2 2 1 1 1 1 1 1 1
3 3 4 4 4 5 5 6 7 7 8 9 10 11 10 9 9 9 10 10 10 10 10 11 11 11 10 10 10 10 10 11 11 11 11 10 9 9 9 9 9 8 8 7 7 7 7 7 7 7 7 7 7 7 6 6 6 6 5 5 5 5 4 4 4 4 3 3 3 3 3 3 3 2 2 2 1 1 1 1 1 1 1 1 1
2 3 3 3 3 3 4 5 5 6 7 8 9 10 10 10 9 8 8 9 9 9 9 10 10 10 9 9 9 10 10 10 10 10 10 9 9 9 9 9 9 8 7 7 7 7 8 8 7 7 7 7 7 6 6 6 6 6 6 6 5 5 5 4 3 3 3 3 3 3 3 3 2 2 2 1 1 1 1 1 1 1 1 1 1
2 2 2 2 3 3 3 3 4 5 6 7 8 9 10 10 10 9 7 7 7 7 8 8 9 8 8 8 8 8 9 10 10 10 9 9 8 8 8 8 8 7 7 7 8 8 8 8 7 7 7 7 6 6 5 5 5 5 5 5 5 5 4 4 3 3 3 3 3 3 3 3 3 2 2 1 1 1 1 0 0 1 1 1 1
1 1 1 1 2 2 3 3 3 4 5 6 8 9 9 10 10 10 8 7 6 6 6 7 8 8 8 9 8 8 9 10 10 9 9 8 8 8 7 7 6 6 6 7 8 8 7 7 7 7 7 6 6 5 5 5 5 5 5 5 5 5 4 4 4 3 3 3 3 4 3 3 2 2 1 1 1 0 0 0 0 0 0 0 0
0 0 1 1 1 1 2 2 3 3 4 5 7 8 9 9 10 10 10 8 7 7 6 7 7 8 7 7 7 8 9 9 9 8 8 7 7 7 6 5 5 5 6 7 8 8 7 7 7 7 6 6 5 5 5 5 5 5 5 5 4 4 4 4 4 3 3 3 3 3 3 2 2 1 1 1 0 -0 -0 -0 -0 -0 -0 -0 0
0 0 0 0 1 1 1 1 1 2 3 4 5 7 8 9 9 10 10 10 9 9 7 6 6 7 7 6 6 6 8 8 8 7 7 7 7 6 6 5 6 6 7 7 7 7 7 7 7 6 6 5 5 5 5 5 4 4 4 4 4 4 4 4 3 2 2 3 3 3 2 2 2 1 1 0 0 0 -0 -0 -1 -1 -1 -1 -1
1 1 1 1 0 0 0 1 1 1 1 2 4 6 7 8 9 9 10 10 10 9 7 5 4 5 6 5 5 5 5 6 6 7 6 6 6 6 6 6 6 7 7 7 7 7 7 6 6 6 5 5 5 5 5 4 4 4 4 4 4 3 3 3 2 1 1 3 3 3 2 2 2 1 1 0 0 0 -0 -0 -1 -1 -1 -1 -1
2 2 1 1 0 0 0 0 0 1 1 1 3 5 7 8 8 9 10 10 9 8 7 5 4 4 4 4 4 5 5 3 3 4 5 5 6 6 7 7 7 7 7 7 6 6 6 6 5 5 5 5 5 5 4 4 4 4 3 3 4 3 3 3 2 2 2 3 3 3 2 2 1 1 1 0 -0 -0 -0 -0 -1 -1 -1 -1 -1
2 1 1 0 -0 -0 0 0 0 0 1 2 3 5 6 7 8 8 9 9 9 8 7 6 5 5 4 4 4 5 4 2 2 3 4 4 6 7 7 7 7 7 6 6 6 6 6 5 5 5 5 5 4 4 4 4 4 4 3 3 4 4 3 3 3 3 2 3 3 2 2 1 1 1 1 0 -0 -0 -0 -0 -1 -1 -1 -1 -1
1 1 0 -0 -0 -0 -0 -0 -0 0 1 2 4 5 6 7 7 8 8 9 8 8 7 7 6 5 4 4 4 3 2 2 3 3 4 5 6 7 7 7 6 6 6 6 5 5 5 5 4 4 4 4 4 4 3 3 3 3 3 3 3 3 3 3 3 2 2 2 2 1 1 1 1 1 0 0 -0 -1 -1 -1 -0 -0 -1 -1 -1
2 1 0 -0 -0 -1 -1 -0 -0 0 1 2 4 5 6 7 7 8 8 8 8 7 7 7 7 5 3 3 4 3 3 3 3 4 5 6 6 6 6 6 6 5 5 5 5 5 5 5 4 4 4 3 3 3 3 3 3 3 3 3 3 3 3 3 2 1 1 2 2 1 1 1 0 0 -0 -0 -1 -1 -1 -1 -0 -0 -0 -1 -1
2 2 1 0 -0 -0 -0 -0 -0 0 1 3 4 5 6 7 7 7 8 8 8 7 7 7 6 4 3 3 3 3 3 4 3 4 5 5 5 6 6 6 5 5 5 5 5 5 4 4 4 4 4 3 3 3 3 3 3 3 3 3 2 2 2 2 2 1 1 1 1 1 0 -0 -1 -1 -0 -0 -0 -1 -1 -1 -0 -0 0 -0 -1
1 2 2 2 1 0 0 0 0 1 2 3 3 4 4 5 6 6 7 7 6 6 6 6 5 3 2 2 3 4 4 4 4 4 4 5 5 5 5 5 5 4 4 4 4 4 4 4 4 3 3 2 2 2 2 2 2 2 2 2 2 1 1 1 1 0 0 1 0 -0 -1 -1 -1 -0 -0 -0 -0 -0 -0 -0 -0 0 0 -0 -0
1 1 2 3 3 2 1 1 1 1 2 3 3 3 4 4 5 5 5 5 4 4 4 4 3 2 2 2 4 5 5 5 4 4 5 5 5 5 5 4 4 3 3 4 4 3 3 3 3 2 2 1 1 1 1 1 1 1 1 1 1 0 0 0 0 0 0 0 -1 -1 -1 -0 -0 -0 -0 -0 -0 -0 0 0 0 0 0 -0 -0
1 1 2 3 4 3 3 3 3 3 3 4 4 4 4 4 3 3 3 3 4 4 4 3 3 2 3 3 4 4 5 4 4 4 4 4 4 4 4 3 3 3 3 3 3 3 3 3 2 2 1 1 1 1 1 1 1 0 0 0 0 -0 -0 0 0 0 0 0 -1 -2 -1 -1 -0 -0 -0 -0 -1 -0 0 0 0 0 0 -0 -0
1 1 1 2 2 3 3 4 4 4 5 5 5 5 5 4 3 3 3 3 4 4 3 3 2 2 2 3 3 3 3 3 4 4 4 4 4 3 3 3 3 3 3 2 2 2 2 2 1 1 1 1 0 0 0 0 0 0 0 0 0 -0 -0 0 0 0 0 0 -1 -2 -2 -1 -1 -1 -1 -1 -0 0 0 0 0 0 0 -0 -0
0 0 0 1 1 2 2 2 3 3 4 5 5 5 5 4 3 3 3 3 3 3 3 3 2 2 1 1 2 2 2 2 3 3 3 3 3 3 3 3 2 2 2 1 1 1 0 0 0 0 0 0 0 1 0 -0 -0 -0 -0 0 0 0 -0 -0 0 0 0 0 -0 -1 -1 -2 -2 -1 -1 -0 -0 0 0 0 0 0 -0 -0 -0
1 0 0 0 0 1 1 2 2 2 3 3 4 4 4 4 4 3 3 3 3 3 3 2 2 1 1 1 1 2 2 2 2 2 2 2 2 2 2 2 2 2 1 1 0 0 -0 -0 -0 -0 -0 0 0 1 0 0 0 -0 -0 -0 0 0 0 0 0 -0 0 0 0 0 -1 -2 -2 -1 -0 0 0 1 0 0 0 -0 -0 -0 0
1 1 0 -0 -0 -0 0 1 1 1 1 1 2 2 2 2 2 2 2 2 2 2 1 1 1 1 1 1 1 2 2 2 2 2 1 1 1 1 1 1 1 1 0 -0 -0 -0 -0 -1 -1 -0 -0 -0 0 0 0 0 0 0 0 0 0 0 0 0 0 -0 0 0 0 0 -0 -1 -1 -1 0 1 1 1 1 0 0 -0 -0 -0 0
1 1 0 -0 -1 -1 -0 -0 -0 -0 -0 -0 0 0 0 0 0 0 0 0 0 0 0 0 0 0 0 0 1 1 1 1 1 1 1 1 1 1 0 0 0 -0 -0 -1 -1 -1 -1 -1 -1 -1 -0 -0 0 0 0 0 0 1 1 1 0 0 0 0 0 0 0 0 0 0 0 -1 -1 -1 0 1 1 1 1 0 -0 -0 -0 0 1
2 1 1 0 -0 -1 -1 -1 -1 -1 -1 -1 -1 -0 -0 -1 -1 -1 -1 -1 -1 -1 -0 -0 -0 -0 -0 -0 0 0 0 0 0 0 0 0 0 -0 -0 -0 -0 -1 -1 -1 -1 -1 -1 -1 -1 -1 -1 -0 -0 -0 -0 0 0 0 0 0 0 0 0 0 0 0 0 0 0 0 -0 -1 -1 -1 0 1 1 1 1 0 0 0 1 1 1
Height
810 812 813 814 815 817 818 820 821 822 823 823 824 825 826 828 829 830 830 831 832 833 834 835 836 837 838 839 841 842 843 844 845 846 847 848 849 850 851 851 852 852 853 853 854 855 855 856 857 857 858 858 858 859 859 859 859 859 859 859 859 859 859 858 860 863 865 866 867 867 867 866 866 866 866 865 864 864 863 863 862 861 861 859 857
809 811 812 814 815 816 818 819 820 821 822 823 823 825 826 828 829 830 831 832 832 833 834 835 836 837 838 839 841 842 843 844 846 847 848 849 849 850 851 852 852 853 853 854 854 855 856 856 857 858 858 859 859 859 859 859 859 859 860 860 860 860 860 859 860 861 864 865 866 866 866 866 866 866 865 865 864 864 863 862 862 861 860 859 858
808 810 811 813 814 815 817 818 819 821 821 822 823 824 826 827 828 830 831 831 832 833 834 835 836 837 838 839 840 842 843 844 845 846 847 849 849 850 851 852 852 853 853 854 854 855 856 856 857 858 858 859 859 859 859 860 859 860 860 861 861 861 861 861 860 861 862 864 864 865 865 865 865 865 865 864 863 863 862 862 861 860 859 858 858
808 810 811 812 813 815 816 817 818 819 820 821 822 824 825 826 828 829 830 831 831 832 833 834 835 836 837 839 840 841 842 844 845 846 847 848 849 850 851 852 852 853 853 854 854 855 856 856 857 858 858 859 859 860 860 860 860 860 861 862 862 862 862 862 861 861 861 862 863 863 864 864 864 864 864 863 862 862 861 861 860 859 858 857 857
808 809 810 812 813 814 815 816 816 817 818 820 822 823 824 825 827 828 829 830 831 831 833 834 835 836 837 838 839 840 841 843 844 845 846 847 848 850 850 851 852 852 853 853 854 854 855 856 856 857 858 858 859 859 860 860 860 861 861 861 862 862 863 863 863 862 861 861 862 863 863 863 863 863 863 862 862 861 860 860 859 858 857 856 855
808 809 810 811 812 813 814 815 815 816 817 819 820 822 823 824 826 827 829 829 830 831 832 833 834 835 837 838 838 839 840 841 842 844 845 846 847 848 849 850 851 852 852 853 853 854 854 855 856 856 857 858 858 859 859 860 861 861 861 862 862 862 863 862 862 863 862 861 862 862 862 862 862 862 862 862 861 860 860 859 858 857 856 855 854
808 809 809 810 811 812 813 814 814 815 816 818 819 820 822 823 825 826 828 828 829 830 831 832 833 835 836 837 838 838 839 840 841 843 844 845 846 847 848 849 850 850 851 852 852 853 853 854 854 855 856 856 857 857 858 859 860 861 861 862 862 862 862 862 862 862 862 861 861 861 861 861 862 861 861 861 861 860 859 859 857 856 856 854 853
807 808 809 810 811 812 812 813 813 814 815 817 818 819 820 822 823 825 826 827 828 829 830 831 832 833 834 836 837 837 838 839 840 841 843 843 845 845 846 847 848 849 850 850 851 851 852 852 853 854 854 855 856 856 857 858 859 859 859 861 862 862 862 862 861 861 861 860 860 860 860 860 860 860 861 860 860 860 860 859 857 856 854 853 852
808 808 809 810 811 812 813 813 813 813 814 815 817 818 819 820 821 823 824 826 827 828 829 829 830 832 833 834 835 836 837 838 838 840 841 842 843 844 845 845 847 848 848 849 849 849 850 851 851 852 852 853 854 854 855 856 857 858 858 859 861 861 861 861 860 859 859 858 858 859 859 858 858 860 861 860 860 860 860 859 857 855 854 852 850
808 808 809 810 811 812 812 812 812 813 813 815 816 816 818 819 820 821 823 824 825 826 827 828 829 830 831 832 833 833 834 835 836 837 838 839 841 842 842 843 844 845 846 847 847 847 848 849 849 849 850 851 852 853 853 854 855 857 858 858 859 860 860 860 859 859 858 857 857 859 859 858 858 860 860 860 860 860 859 858 857 855 853 851 849
809 809 809 810 811 811 812 812 812 813 813 814 815 816 817 818 818 820 821 822 824 825 826 826 827 829 829 830 831 831 832 833 833 835 836 837 838 839 840 841 841 843 844 845 845 845 846 846 847 847 848 848 849 850 851 852 853 855 856 857 857 858 858 859 859 859 859 858 858 859 859 859 859 860 860 859 860 859 859 858 856 854 853 850 848
810 810 810 811 811 811 811 812 812 812 813 814 814 815 816 816 817 819 819 821 822 823 824 825 826 827 827 828 829 829 830 830 831 832 833 834 835 836 838 839 839 840 841 842 843 843 843 844 845 846 846 847 848 848 849 850 852 853 854 855 856 857 857 858 858 859 859 859 859 859 859 859 859 859 859 859 859 859 858 857 855 854 853 851 848
811 811 811 811 811 811 811 811 812 812 812 813 814 814 815 816 817 818 818 820 821 822 823 823 823 824 825 826 827 828 828 829 829 830 830 831 833 833 835 836 837 838 839 840 841 841 841 842 843 844 844 845 846 847 847 848 849 851 852 853 854 855 856 856 857 858 858 859 859 859 859 859 859 859 859 859 858 858 857 856 855 853 852 850 848
812 812 812 812 811 811 811 811 811 812 812 813 813 813 814 815 816 817 818 819 820 821 821 821 822 822 822 824 825 825 826 826 827 828 828 829 830 831 832 833 834 836 838 838 839 839 840 840 841 842 843 843 844 845 846 846 847 849 850 852 853 854 855 856 856 857 858 858 859 859 859 859 859 859 858 858 857 857 856 855 854 852 851 849 846
812 812 812 812 812 812 812 811 811 811 811 812 812 812 813 814 815 815 816 817 817 818 819 820 820 820 820 821 822 823 823 823 824 825 826 828 828 829 831 831 833 835 836 837 837 837 838 838 839 840 841 842 842 843 844 844 845 847 849 851 852 853 854 854 855 856 857 857 858 858 858 858 858 858 858 857 857 856 855 854 852 850 848 846 843
813 813 813 813 813 812 812 812 811 811 811 811 811 811 812 812 813 814 814 815 815 815 816 817 817 817 818 818 819 820 820 821 822 823 824 826 827 828 830 831 832 834 835 835 836 836 837 837 838 838 839 840 840 841 842 843 844 846 848 850 851 851 852 853 854 855 855 856 856 856 856 856 856 856 856 855 855 854 853 852 850 848 846 843 840
814 814 814 814 813 813 812 812 811 811 811 810 810 810 810 811 811 811 812 813 813 813 814 815 815 815 816 816 817 818 819 819 820 821 823 825 826 827 829 830 831 832 833 834 835 835 835 835 836 837 838 838 838 839 840 842 844 845 847 849 850 851 851 852 853 853 854 854 854 855 855 855 854 854 853 853 852 852 851 850 848 847 845 842 838
815 815 815 815 814 813 812 812 811 811 810 810 810 809 809 809 810 809 810 811 811 812 812 813 814 815 815 816 816 817 818 818 819 821 822 823 825 827 828 828 830 831 832 833 833 833 833 834 835 836 836 836 837 838 839 841 843 845 846 847 849 850 851 851 852 852 852 853 853 853 853 852 852 851 850 849 849 849 849 848 847 845 843 840 837
816 816 816 815 814 813 812 812 811 810 810 810 809 809 808 808 808 808 808 809 810 810 811 811 813 814 815 815 816 816 817 818 819 820 822 823 824 826 826 827 828 830 831 832 833 833 833 833 834 835 835 835 836 837 838 841 843 844 845 847 848 849 850 851 851 852 852 852 852 851 851 850 849 848 847 846 846 846 846 846 845 844 842 839 837
816 816 816 815 814 813 812 812 811 810 810 809 808 808 808 807 807 807 806 807 808 809 810 811 812 813 813 814 815 816 817 818 819 820 821 822 824 825 826 826 827 829 830 831 832 832 833 833 833 834 835 835 836 837 839 841 842 844 845 846 847 848 849 850 850 851 852 852 851 850 850 849 848 847 847 846 845 844 844 844 844 843 841 839 837
815 814 814 813 813 813 812 811 811 810 809 809 808 807 807 807 806 806 805 805 806 807 809 810 811 811 812 813 815 815 816 817 818 819 821 822 823 824 825 825 826 828 829 830 831 832 833 833 834 834 836 836 837 838 839 841 842 843 844 845 846 847 848 849 849 849 850 850 849 849 848 847 847 846 846 845 845 844 843 843 842 842 840 838 836
814 813 812 812 811 811 811 810 810 809 809 808 807 806 806 806 805 805 805 805 805 806 807 808 809 810 811 813 813 814 815 816 817 818 819 821 822 823 824 825 825 827 828 829 830 832 833 833 834 835 836 837 838 839 840 841 842 842 843 844 845 846 847 848 848 848 849 848 848 847 847 846 845 845 844 844 843 843 842 841 840 840 839 837 835
813 812 811 810 809 809 809 808 808 808 807 807 806 805 805 804 804 804 804 804 805 806 806 807 808 809 810 811 812 813 814 815 817 817 818 819 820 822 823 824 825 826 827 828 830 831 832 832 833 835 836 838 838 839 840 840 841 842 843 844 845 846 846 848 848 848 848 847 847 846 845 845 844 844 843 843 842 841 840 839 839 837 836 835 833
812 810 809 809 808 807 807 806 806 805 805 805 804 804 803 803 803 803 803 803 803 804 805 805 806 807 808 809 810 811 812 814 816 817 817 818 819 820 822 823 825 826 827 828 829 830 831 832 833 835 837 838 839 839 839 840 841 842 843 844 844 845 846 847 847 847 847 846 846 845 844 844 844 843 842 842 841 840 839 837 836 835 833 832 831
810 808 807 806 806 805 804 804 803 803 803 802 802 801 801 800 800 800 800 801 801 801 802 803 804 805 807 808 808 809 810 812 814 815 816 816 817 819 821 823 824 825 826 827 828 829 830 831 833 835 836 838 838 839 839 840 841 842 843 843 844 845 846 846 846 846 846 845 845 844 844 843 842 842 842 841 840 838 837 836 834 833 831 830 828
808 806 805 804 803 802 801 801 800 800 800 799 799 798 798 797 797 797 797 797 798 798 799 800 802 803 804 806 807 808 809 810 812 813 814 814 816 818 819 821 823 824 824 825 826 828 830 832 833 835 836 838 838 839 839 840 841 842 842 843 844 845 846 846 846 845 845 844 844 843 843 842 841 840 840 839 838 837 835 834 832 831 829 827 825
806 805 803 802 800 799 798 797 797 796 796 796 795 795 794 794 794 793 793 794 794 795 796 797 798 799 801 802 804 805 807 809 810 811 812 813 814 816 817 819 820 822 823 825 826 828 830 832 833 835 836 837 839 839 839 840 841 842 843 844 845 845 845 845 845 844 844 844 843 842 841 840 839 838 837 836 835 834 833 832 830 829 827 825 823
804 803 802 800 799 797 795 794 794 793 792 792 791 791 790 790 790 790 790 790 791 791 793 794 796 796 797 799 801 802 804 806 807 808 810 810 812 813 815 816 819 820 822 824 825 827 829 831 833 835 836 838 839 840 840 841 841 842 843 844 844 844 844 844 843 843 843 843 842 841 840 839 838 836 835 834 833 832 831 830 828 827 825 824 822
802 801 800 798 796 795 794 792 791 790 789 788 787 787 786 786 787 787 788 788 789 790 790 792 794 796 796 797 800 802 803 804 804 805 807 808 809 811 812 815 817 819 820 822 824 827 829 832 834 835 836 838 839 839 840 840 841 842 842 843 843 843 843 843 842 842 842 842 841 840 839 838 837 835 834 833 832 831 830 828 827 825 824 822 820
800 799 798 796 794 793 791 790 789 787 786 785 784 783 783 784 784 785 786 786 787 788 789 790 793 795 795 796 799 803 805 804 804 805 806 808 809 810 811 813 815 816 818 821 823 826 829 831 832 834 835 837 837 838 839 839 840 841 842 842 843 843 843 842 842 842 841 841 840 839 837 836 836 834 833 832 831 829 828 827 825 824 822 820 818
798 796 795 794 793 791 790 788 787 785 783 782 781 780 780 781 781 782 783 783 784 786 787 789 791 793 794 795 798 802 804 805 805 805 806 807 808 809 810 812 813 815 818 821 824 826 828 830 831 833 834 835 836 837 838 838 839 840 841 841 842 842 842 842 841 841 840 839 838 837 836 835 835 833 832 831 830 828 827 825 824 822 820 819 817
795 794 793 791 791 790 789 787 785 784 782 780 778 777 777 777 778 779 780 781 782 784 785 787 788 790 792 794 797 799 800 802 804 804 805 806 807 809 810 811 813 816 818 821 824 826 827 828 830 832 833 834 835 836 837 838 839 839 840 840 840 841 841 841 840 840 839 838 838 837 835 834 833 832 831 829 828 827 825 824 822 821 819 817 816
792 791 790 789 788 787 786 785 783 782 780 778 776 774 773 773 774 776 777 779 780 781 783 784 786 788 790 793 795 796 797 799 801 802 803 805 806 808 810 812 814 816 819 821 823 825 826 828 829 831 832 833 835 836 837 837 838 839 839 840 840 840 840 840 839 839 838 837 836 835 834 833 831 830 829 828 827 825 824 822 821 819 817 816 814
789 788 786 786 785 783 783 782 781 780 778 776 774 772 771 771 771 772 774 776 778 780 781 782 784 786 789 790 792 793 795 797 799 800 802 803 806 808 810 813 815 817 820 822 823 824 826 827 829 830 832 833 834 835 836 837 838 839 839 839 839 839 839 839 838 838 837 836 835 833 832 831 830 829 828 827 825 824 823 821 819 818 816 814 813
785 783 782 781 781 780 780 779 778 778 776 774 771 770 769 769 769 770 771 773 775 778 779 780 782 784 786 788 789 791 793 795 797 798 800 802 805 807 810 813 815 818 820 821 823 824 825 827 828 830 831 832 834 835 836 837 838 838 838 839 839 839 839 838 837 837 836 835 834 832 831 831 829 828 827 825 824 823 821 820 818 817 815 813 811
781 779 778 777 776 776 776 776 776 776 775 773 771 768 767 767 768 767 768 769 772 775 777 779 780 782 784 787 789 790 792 795 796 798 800 802 804 807 810 812 815 817 819 821 822 823 825 826 828 829 831 832 833 834 835 836 837 838 838 838 838 838 838 837 837 836 835 834 832 831 831 830 828 827 826 824 823 821 820 818 817 815 814 812 810
778 776 774 773 772 772 772 772 772 773 773 772 770 767 766 766 766 766 766 767 769 772 775 777 779 779 781 785 789 789 792 795 797 798 801 803 806 808 810 812 814 816 818 820 821 823 824 826 828 829 830 832 833 834 835 836 836 837 838 838 837 837 837 836 836 835 834 832 831 830 830 828 827 826 825 823 821 820 818 817 815 813 812 810 808
776 774 772 770 768 769 769 770 770 771 771 771 769 766 765 765 765 765 765 766 768 771 773 776 779 779 778 783 788 789 792 797 800 800 802 805 808 809 811 812 814 816 818 820 822 823 824 826 828 829 830 831 832 833 835 836 836 837 837 837 837 836 836 835 834 834 833 832 830 829 829 827 826 825 824 822 820 819 817 815 814 812 810 808 806
774 772 770 768 766 767 767 768 769 769 769 768 767 765 764 764 764 765 765 766 768 771 772 775 779 779 778 780 784 787 790 796 800 800 802 806 808 809 810 812 814 816 818 820 822 823 824 826 827 829 830 831 832 833 834 835 836 836 836 836 836 835 835 834 834 833 832 831 830 829 828 827 826 824 823 821 820 818 816 814 812 810 808 806 804
773 771 769 767 766 766 766 767 768 768 767 766 765 763 763 763 764 765 765 766 768 771 773 775 778 780 780 781 783 786 790 796 799 800 802 805 807 808 810 812 814 816 819 821 822 823 824 825 827 828 830 831 832 833 834 835 835 835 835 835 835 835 834 834 833 833 832 831 830 829 828 826 825 823 822 820 819 817 815 813 811 809 807 805 803
773 771 769 767 766 766 766 767 767 767 766 765 763 761 761 763 764 764 766 767 768 770 772 774 777 780 781 782 784 787 792 797 800 802 803 804 805 808 810 812 815 817 819 820 822 823 824 825 827 828 830 831 832 833 834 835 835 835 835 835 835 834 834 833 833 832 832 831 830 829 827 826 824 823 821 819 818 816 814 812 810 808 806 803 801
773 771 770 768 767 766 766 766 766 766 766 765 763 762 762 763 764 765 766 766 768 770 772 774 777 780 782 783 786 790 794 797 801 803 805 806 807 808 810 813 815 817 819 820 822 823 824 825 827 829 830 831 832 833 834 834 835 835 835 835 834 834 834 833 833 832 831 831 830 828 827 825 824 822 820 818 817 815 813 811 809 807 804 802 800
773 772 770 769 768 767 766 766 766 766 765 765 765 765 764 765 766 766 767 768 769 771 773 776 779 781 784 786 789 792 795 798 800 803 805 807 808 809 811 813 815 817 819 820 822 823 825 826 828 829 830 832 832 833 834 834 834 835 835 834 834 834 833 833 832 831 831 830 828 827 826 824 823 821 819 818 816 814 812 810 808 806 803 801 799
774 772 771 769 768 767 767 767 767 766 766 766 766 766 767 767 767 768 769 770 771 772 774 777 780 782 785 789 791 793 795 798 801 803 805 807 808 810 812 814 816 818 819 821 823 824 826 827 828 829 831 832 832 833 834 834 834 835 835 834 834 833 833 832 831 830 829 828 827 826 825 824 822 821 819 817 815 813 811 809 807 805 802 800 798
775 774 772 770 769 768 768 767 767 767 767 767 767 767 769 769 769 770 772 774 774 774 776 778 781 783 786 790 792 794 795 798 801 803 805 807 809 810 812 814 816 819 820 822 824 825 827 828 829 830 831 832 833 833 834 834 834 834 834 833 833 833 832 831 830 829 828 827 826 826 825 823 821 820 818 816 815 812 810 808 806 804 802 799 797
777 776 774 773 772 771 769 769 768 768 768 768 768 769 771 772 772 774 776 777 776 776 778 780 783 785 787 789 792 794 796 799 801 804 807 808 809 810 812 815 818 820 821 823 824 826 827 829 830 830 831 832 833 833 834 834 834 834 833 832 832 832 831 830 829 828 827 826 825 824 823 822 820 819 817 816 814 812 810 808 805 803 801 799 797
779 778 777 776 775 774 773 772 772 771 771 771 771 772 774 775 777 777 778 778 778 778 780 782 784 786 788 790 793 796 798 800 802 805 807 809 810 811 813 816 819 821 822 824 825 826 828 829 829 830 831 832 832 833 834 834 834 833 833 832 831 831 830 829 828 827 827 826 825 823 822 821 819 818 817 815 813 811 809 807 805 803 801 799 797
782 781 779 778 778 777 776 776 775 775 775 775 775 776 777 778 779 779 780 780 780 781 783 785 786 788 791 793 795 798 800 802 804 806 808 809 810 812 815 818 820 821 823 824 825 827 828 829 830 830 831 832 832 833 833 833 833 833 832 832 831 830 829 828 827 827 826 825 824 823 821 820 819 818 816 815 813 811 809 806 804 803 801 799 797
786 784 783 782 781 780 780 779 779 779 779 779 779 780 780 780 781 782 783 783 784 785 786 787 789 791 794 796 798 800 802 804 806 808 809 811 812 814 816 819 820 822 824 825 826 827 828 829 830 831 831 832 833 833 833 833 833 832 832 831 830 829 829 828 827 826 825 824 823 822 821 820 819 818 816 814 812 810 808 806 804 803 801 799 797
789 788 787 786 784 784 783 783 782 782 783 783 783 784 784 784 784 785 786 786 787 788 789 791 793 795 797 799 801 803 804 806 808 810 811 813 814 816 818 819 821 822 824 825 826 827 828 829 830 831 831 832 832 832 833 832 832 831 831 830 829 829 828 827 826 825 824 823 822 822 820 819 818 817 816 814 812 810 808 806 805 803 801 799 797
791 791 790 789 788 788 787 787 786 786 786 787 787 787 788 788 789 790 790 790 791 792 794 795 797 799 801 803 804 805 807 809 810 812 813 815 816 817 819 820 822 823 824 825 826 828 829 829 830 831 831 832 832 832 832 832 831 830 830 829 828 828 827 827 826 825 824 823 822 821 820 819 818 817 815 814 812 810 808 806 804 803 800 798 797
Wind_Speed
10 9 9 10 12 12 13 13 12 13 14 13 11 11 11 11 11 12 11 12 13 13 12 12 12 11 12 11 11 11 10 10 9 9 9 8 8 8 8 8 8 8 8 7 7 7 7 7 6 5 5 5 5 5 5 5 5 5 5 6 6 5 4 5 7 7 5 3 3 3 2 1 2 3 3 2 2 2 2 2 3 4 3 5 8
7 8 7 8 11 12 13 14 13 13 14 13 10 11 11 11 11 12 11 11 12 13 12 12 12 12 11 11 11 11 11 10 9 9 9 9 8 8 8 8 8 8 7 7 7 7 6 6 6 5 4 5 4 4 5 4 4 5 4 4 5 5 4 4 5 6 6 5 4 3 2 1 1 2 2 2 2 2 2 2 3 2 4 5 5
5 6 7 7 8 10 11 12 13 12 13 12 10 10 11 11 11 11 11 11 12 12 12 12 12 12 12 11 11 11 11 10 9 9 9 9 8 8 7 7 7 7 7 7 7 7 6 6 6 5 5 5 4 3 4 3 2 4 4 3 4 4 3 2 3 4 5 5 4 3 2 1 0 1 1 2 2 3 3 3 3 2 4 6 5
4 5 6 6 7 8 9 10 11 11 10 10 10 10 11 11 11 11 11 11 11 11 11 12 12 12 12 12 11 11 10 10 9 9 9 9 8 8 7 7 6 6 6 6 6 6 6 6 6 6 5 5 4 3 3 3 2 3 3 3 3 3 3 2 1 2 4 5 3 2 1 1 1 1 3 3 3 3 4 4 5 4 4 7 6
4 4 5 6 6 7 7 8 8 9 9 9 9 10 10 10 11 11 10 10 11 11 11 11 11 11 11 12 12 11 11 11 10 9 9 8 7 7 6 6 6 6 5 6 5 5 6 5 6 6 5 5 4 3 3 3 2 2 2 2 3 2 2 2 1 0 1 3 3 2 1 1 1 1 3 5 5 5 5 5 6 5 5 8 8
5 5 5 5 5 5 6 6 6 7 8 9 10 10 10 10 11 11 10 10 11 11 11 11 11 10 10 11 11 12 12 11 11 11 10 9 8 7 7 6 6 6 6 6 6 6 6 6 6 7 6 6 5 4 4 3 2 1 1 1 1 2 1 1 1 0 0 1 2 2 1 1 1 2 2 5 6 5 6 8 8 6 7 9 10
5 5 4 4 4 5 5 6 7 8 9 10 10 10 10 10 11 11 10 10 11 11 10 10 10 9 9 10 11 11 11 11 11 11 10 10 9 8 8 7 7 7 7 7 7 7 7 7 7 8 8 7 7 6 6 5 4 2 1 1 2 1 2 1 1 1 1 1 1 1 1 1 1 3 3 4 5 5 7 10 10 9 9 10 11
5 5 5 4 3 3 4 5 7 8 9 10 10 10 10 9 10 10 10 11 11 10 10 10 10 9 9 9 10 10 10 10 10 10 9 9 8 8 7 7 6 7 7 7 7 8 9 9 9 9 9 10 9 8 8 8 7 6 6 4 3 3 2 2 2 3 3 3 4 3 2 3 3 3 4 5 6 7 8 10 11 12 12 12 12
5 5 5 5 4 3 3 4 5 6 7 8 9 8 8 8 9 10 10 10 10 10 10 10 10 10 10 9 9 9 9 9 9 9 8 8 7 7 7 6 6 6 7 8 8 9 10 10 11 11 12 13 12 11 11 11 9 8 8 7 6 5 4 4 4 4 4 5 6 5 5 7 6 5 5 6 6 8 9 10 11 13 14 14 13
7 5 5 5 4 3 3 3 3 4 5 7 7 7 7 6 7 9 9 9 9 9 10 10 10 11 11 11 11 10 9 10 11 11 10 9 8 7 7 7 6 7 8 9 9 10 10 10 11 13 14 14 14 13 13 13 12 10 8 8 8 7 5 5 5 4 5 6 6 5 6 7 6 4 5 5 6 8 9 11 12 13 14 14 13
7 6 5 4 3 3 2 2 2 3 3 5 6 6 6 6 6 7 8 8 9 9 10 11 11 11 11 12 12 11 10 11 11 11 11 11 9 8 7 7 8 9 10 10 10 10 10 10 10 11 11 11 13 14 14 14 13 12 11 11 10 9 7 5 4 3 4 6 5 4 6 6 5 5 6 6 7 9 10 12 13 13 13 13 14
7 6 5 4 3 2 1 1 1 2 3 4 4 4 5 5 5 6 7 8 8 9 9 9 10 10 11 12 12 11 12 12 11 11 12 13 11 9 8 7 8 9 10 10 10 9 9 9 8 8 8 9 12 13 14 15 14 14 14 14 13 12 10 7 4 2 2 4 4 5 5 5 6 6 5 6 8 10 12 12 12 12 13 14 15
8 8 7 6 5 3 1 0 1 2 3 3 4 4 4 5 5 6 6 8 8 9 9 9 10 11 11 12 13 12 12 14 14 14 15 14 13 12 10 9 9 9 9 9 9 8 7 7 7 8 7 8 9 10 12 14 16 16 16 15 14 14 12 9 7 5 3 3 4 5 4 4 7 6 5 7 9 11 12 13 12 13 14 14 16
8 8 7 7 6 5 3 2 0 1 2 3 4 5 5 6 6 6 7 9 9 8 9 10 11 12 12 13 14 13 14 16 17 17 16 15 14 13 12 10 9 8 7 7 7 6 6 6 6 7 7 6 7 9 10 13 16 18 16 14 14 13 10 8 7 6 4 3 4 4 3 4 6 5 5 8 9 10 11 13 13 15 16 17 18
7 7 7 7 7 6 6 5 3 1 2 4 5 6 7 7 8 8 9 11 12 11 12 12 11 12 14 14 14 14 14 16 16 17 16 15 14 13 11 10 8 8 7 6 5 5 5 5 5 6 6 6 7 9 11 11 13 16 15 12 10 10 9 7 6 5 3 3 3 3 3 5 6 6 6 8 8 9 11 13 15 16 17 17 18
7 7 7 7 7 6 6 6 5 4 2 3 4 6 7 7 9 10 10 12 14 14 13 12 11 12 13 13 12 12 14 15 16 16 16 14 14 13 11 10 9 8 7 5 4 4 4 4 5 5 5 6 9 10 12 11 12 14 14 12 10 9 10 10 8 6 6 6 6 6 7 9 11 11 11 11 10 10 11 13 15 15 15 16 16
8 8 8 7 7 7 6 6 5 5 5 4 4 5 6 6 7 9 10 11 12 12 12 12 11 11 11 11 11 10 11 13 15 15 15 15 15 13 11 10 9 8 7 5 5 5 5 5 5 4 5 8 9 10 12 12 13 14 13 12 10 8 9 9 7 7 8 8 9 10 10 11 13 14 14 14 13 11 11 12 13 12 14 15 15
9 9 8 9 9 8 7 7 7 6 6 6 5 6 7 7 7 8 9 10 10 10 9 8 8 9 9 10 10 9 10 13 14 15 16 16 16 13 10 10 9 8 7 6 5 5 5 6 6 6 6 7 8 9 12 13 12 12 12 11 10 8 7 7 6 7 8 8 9 10 11 12 13 14 13 13 14 12 11 12 12 13 14 14 15
9 9 9 9 9 9 8 8 8 8 7 7 7 7 8 8 8 9 10 10 10 9 9 8 9 9 10 12 12 10 10 13 14 14 15 15 16 13 10 9 9 8 8 8 7 6 6 6 7 7 6 7 8 10 14 12 9 10 11 9 8 7 6 5 4 3 4 5 6 8 10 11 12 11 11 13 16 14 11 12 12 13 14 15 15
11 10 10 10 9 9 9 8 8 9 9 8 8 7 7 8 8 9 10 10 11 11 11 12 12 12 13 14 13 11 10 11 13 13 13 14 15 14 10 9 9 9 9 9 8 8 7 7 8 8 7 7 9 11 15 13 9 8 8 7 7 7 6 6 5 4 4 5 6 7 8 9 9 9 9 11 13 12 11 11 11 12 14 15 16
13 12 12 11 10 10 9 9 8 9 10 10 9 9 8 8 9 10 10 10 11 13 14 14 14 14 14 13 13 12 11 12 12 12 12 13 15 15 11 8 8 9 9 9 9 8 8 8 9 9 8 8 9 11 14 14 11 9 8 7 8 7 5 4 3 4 4 5 7 8 8 8 9 9 9 9 10 10 10 10 11 13 15 17 18
14 14 14 13 13 12 11 10 10 9 10 10 10 10 10 9 9 10 11 11 12 13 14 14 14 14 13 12 13 13 13 12 12 13 13 13 14 15 11 8 9 10 9 9 10 9 10 11 12 12 10 10 11 11 12 13 11 9 8 8 7 5 3 2 2 4 5 6 7 8 8 9 9 9 9 10 10 9 9 11 12 15 17 18 19
15 15 15 15 15 15 14 13 11 10 10 10 11 11 11 11 11 11 11 12 14 15 15 15 15 15 14 13 14 15 15 14 13 13 14 13 13 14 13 12 12 11 10 11 11 11 12 14 14 13 12 11 11 11 11 10 9 7 6 5 3 1 1 1 2 3 4 6 7 8 8 8 9 9 9 9 9 10 10 13 14 15 16 17 18
15 15 15 16 16 16 15 15 14 13 12 11 11 12 13 13 13 14 14 15 16 16 16 17 17 16 16 17 19 19 18 16 14 14 14 14 14 14 14 14 14 12 9 10 12 13 14 15 15 14 13 12 12 11 9 8 7 5 4 2 2 3 1 1 2 3 5 6 6 7 8 8 8 8 9 10 11 12 13 14 14 14 15 16 17
16 16 17 17 17 17 16 16 16 15 14 13 13 13 14 14 15 16 17 18 18 19 19 19 19 17 16 18 19 18 18 18 17 16 15 15 15 15 15 16 17 14 11 12 14 14 15 15 15 14 13 11 10 9 8 6 5 4 3 4 4 3 0 1 2 3 5 5 6 7 8 8 7 8 10 12 13 14 14 13 13 14 15 16 17
16 16 17 18 18 18 19 18 18 17 17 16 15 15 15 15 15 17 18 20 21 20 19 20 20 18 17 17 17 16 16 17 17 18 17 16 16 16 16 17 18 16 14 14 15 15 15 15 15 14 12 10 9 8 7 6 4 4 5 5 4 1 0 1 2 4 4 5 6 7 8 8 8 9 12 14 14 14 14 14 14 15 15 16 17
17 17 17 17 18 19 20 20 19 18 17 17 17 16 17 17 17 17 19 21 22 22 20 20 21 20 18 17 16 16 16 15 16 17 17 17 17 17 17 18 18 17 16 16 16 17 18 17 16 14 12 11 9 7 5 5 5 4 4 4 3 2 1 2 3 3 4 5 7 8 9 9 10 12 14 14 14 14 14 14 15 16 16 16 17
18 18 18 18 18 18 19 19 20 19 19 19 19 19 18 18 18 19 20 20 21 21 20 19 19 18 17 16 15 15 15 16 18 19 19 20 20 19 19 19 17 16 17 19 20 20 19 17 15 13 11 10 8 6 5 5 4 3 3 3 2 2 1 3 4 2 3 6 8 8 9 10 11 13 14 13 14 14 14 14 15 16 16 16 17
20 20 20 19 19 18 18 19 20 20 20 20 20 20 19 17 16 17 17 18 19 18 16 14 12 9 10 11 9 8 10 13 17 20 20 21 21 20 19 19 17 17 20 22 22 20 17 14 12 11 9 8 7 6 6 6 5 4 3 2 2 1 1 3 3 3 5 7 8 8 9 11 12 13 13 13 13 14 14 14 15 16 16 16 16
21 21 20 20 20 19 18 18 18 19 21 21 20 20 20 18 18 17 15 16 19 19 17 18 17 14 11 10 7 6 8 10 14 18 19 19 19 19 19 19 19 19 22 22 20 17 15 12 11 10 9 8 7 6 6 5 5 5 4 3 2 1 2 2 3 5 7 7 8 9 10 12 13 13 13 13 14 14 14 15 15 15 15 16 16
21 21 20 20 20 19 19 19 19 18 19 21 21 21 19 18 19 20 18 18 21 22 21 23 26 24 19 15 13 15 17 18 18 18 19 18 18 17 19 20 19 19 21 20 17 14 12 11 10 9 8 7 6 6 5 5 4 4 3 3 2 0 2 3 4 6 7 7 8 10 11 12 13 13 14 14 14 15 15 15 14 15 15 16 17
21 21 21 21 20 20 20 20 20 20 20 20 21 22 20 16 15 16 18 20 22 23 24 26 28 27 24 20 19 22 24 25 23 20 20 20 19 18 18 18 17 18 21 19 14 11 11 11 10 9 8 7 6 6 5 5 4 3 2 2 1 1 2 3 5 6 7 7 8 10 12 12 13 14 14 14 14 15 15 15 15 15 16 16 17
21 22 22 21 21 21 20 20 20 20 20 20 21 22 22 19 15 12 12 14 18 21 24 25 26 27 25 22 21 24 27 27 24 23 23 22 21 19 18 18 18 20 20 15 11 11 11 10 9 9 8 7 6 6 6 5 4 3 2 1 1 2 3 4 6 6 6 7 9 11 12 13 13 13 13 13 14 14 15 16 16 16 16 16 17
22 23 23 23 22 21 21 20 19 18 18 19 21 21 21 20 18 14 12 11 11 13 16 19 22 24 25 25 24 25 27 27 26 26 25 24 23 21 21 21 21 21 17 11 10 11 11 9 9 8 7 7 7 7 6 5 4 3 2 0 1 2 4 5 6 6 7 8 10 12 12 13 13 13 13 14 14 15 15 16 16 16 16 16 17
22 23 25 26 26 24 22 21 19 18 18 18 19 21 21 19 18 17 14 13 12 12 13 13 13 14 16 19 22 23 25 27 28 28 27 26 25 25 25 23 21 18 14 10 10 11 10 9 9 8 7 8 7 7 6 5 4 2 1 1 2 3 5 5 6 7 7 9 11 12 12 12 12 13 14 14 15 15 16 16 16 16 16 17 17
19 20 21 23 24 24 23 22 20 18 18 18 18 20 21 19 18 17 15 14 14 14 13 13 12 10 9 12 16 19 22 26 29 29 28 29 28 27 24 20 18 15 12 11 10 10 9 9 8 8 8 8 7 7 6 5 3 2 1 1 3 4 4 5 6 7 7 9 10 11 12 12 13 13 14 15 15 16 16 16 16 16 16 17 17
19 19 19 18 20 21 20 20 20 18 17 18 18 18 19 19 17 16 15 13 12 12 12 14 16 16 14 12 13 16 21 26 28 28 27 28 27 23 18 16 16 15 13 11 11 10 10 9 8 8 8 8 7 7 6 4 3 2 1 2 3 4 5 6 6 6 7 8 10 12 12 13 13 14 14 15 15 16 16 17 17 17 17 17 17
18 18 17 16 17 19 18 16 16 16 16 16 17 17 17 18 16 15 14 11 10 12 12 12 13 15 19 18 16 16 20 23 25 27 28 27 23 17 14 14 15 13 12 12 11 11 10 10 9 8 8 7 7 6 5 3 2 1 2 3 3 4 6 6 5 5 7 9 10 12 12 13 13 14 14 15 16 16 17 17 17 17 17 16 16
16 15 15 13 11 15 15 13 12 13 13 15 16 16 15 15 16 15 14 11 10 11 13 12 9 11 18 21 20 21 25 26 25 27 28 25 19 14 13 15 14 13 12 12 11 11 10 10 9 8 7 7 6 5 4 3 1 1 2 3 4 4 5 5 5 5 7 9 11 12 12 13 14 15 15 15 16 16 17 17 17 17 16 16 15
13 12 11 10 7 8 10 10 10 10 12 13 14 14 12 11 12 13 14 11 10 11 12 12 10 11 16 22 24 26 27 24 22 23 24 21 16 14 15 15 14 13 13 12 11 11 10 10 9 8 7 7 6 5 3 2 1 2 2 3 4 4 4 5 5 6 8 9 11 12 13 14 15 15 15 15 15 15 16 17 17 17 17 16 15
12 10 9 8 5 3 6 8 8 10 11 12 10 10 10 8 8 10 11 11 10 11 11 11 11 12 16 22 26 27 24 19 16 18 19 18 16 16 16 15 14 13 13 11 10 10 10 9 9 8 7 7 6 4 3 2 2 3 3 3 4 4 4 4 4 6 8 10 11 12 14 15 15 15 15 15 15 16 17 17 17 17 17 16 15
12 10 8 6 4 2 2 4 5 8 9 7 4 3 4 4 4 6 8 9 10 11 11 11 12 13 18 24 26 24 21 20 18 16 14 14 16 16 15 15 14 13 12 11 10 9 9 9 8 8 7 6 5 4 3 2 3 4 4 4 4 4 5 4 5 6 8 10 11 13 13 14 15 15 15 16 16 16 17 17 16 16 17 17 16
11 9 7 6 4 3 1 1 3 3 3 3 3 4 6 6 4 5 6 9 11 12 12 11 12 14 19 24 24 20 18 20 21 19 16 15 16 16 15 15 14 13 12 11 10 9 9 9 8 8 8 6 5 4 4 4 5 4 4 4 4 4 5 5 6 7 8 10 11 12 13 14 15 15 15 15 15 16 17 17 17 17 17 17 16
10 9 8 6 5 5 4 4 4 6 6 6 7 8 9 8 7 7 7 8 11 12 13 13 14 16 19 21 19 17 16 18 20 19 18 16 15 15 15 15 14 14 12 11 10 9 9 8 8 8 8 6 6 5 5 5 5 5 4 4 4 4 5 5 7 8 10 12 12 12 13 14 15 15 15 15 15 16 17 17 17 17 17 16 15
11 11 10 9 7 7 7 7 7 8 8 7 9 11 10 9 10 10 8 7 10 12 13 14 16 18 19 17 14 13 15 17 17 17 17 16 16 16 16 15 15 14 12 11 10 9 8 8 8 8 7 6 5 5 5 5 6 6 6 6 5 5 6 7 8 10 11 12 11 10 12 14 15 14 14 15 16 17 17 18 17 17 17 17 16
12 12 12 11 10 10 11 9 8 8 8 8 10 11 11 11 11 9 7 9 11 13 14 14 15 17 18 17 15 13 14 16 16 15 15 15 15 15 15 15 13 12 11 10 10 10 9 8 8 8 7 6 5 4 3 4 5 6 8 9 8 7 8 9 9 10 11 11 11 10 12 13 13 14 15 16 16 17 17 18 18 17 17 16 16
14 13 13 12 12 11 12 12 11 11 10 9 9 10 10 11 11 9 9 11 13 13 14 15 15 15 17 18 18 16 16 16 16 16 15 16 16 16 15 14 13 12 11 11 10 10 9 9 8 7 6 5 4 3 3 2 3 5 7 9 10 10 10 10 10 10 10 11 11 13 13 12 12 14 16 17 17 18 18 18 17 17 16 16 15
15 14 13 13 13 13 13 13 12 12 12 11 11 10 10 10 10 10 11 12 13 14 14 15 16 17 18 19 19 19 18 18 17 17 16 16 16 16 15 14 12 12 11 11 10 9 9 8 7 6 5 4 3 2 2 3 4 5 6 7 9 10 11 11 10 10 10 10 11 13 13 11 12 14 16 17 17 17 18 17 17 17 16 15 15
15 15 14 14 14 14 14 14 14 13 13 13 13 12 12 12 13 13 13 13 14 15 15 17 19 20 20 20 19 18 18 17 17 16 15 15 15 15 14 14 12 11 10 10 9 9 8 7 6 5 4 3 2 1 2 4 5 6 6 7 8 9 10 11 11 10 10 10 10 12 12 11 12 14 15 16 17 17 16 16 16 16 15 15 15
13 14 14 14 14 13 14 14 14 14 14 14 14 15 15 15 15 14 15 16 17 17 18 19 19 18 17 16 16 16 16 15 14 14 13 13 13 13 14 14 12 10 9 9 9 8 7 6 5 4 3 2 1 1 3 4 6 6 7 8 7 7 9 11 11 10 10 10 9 10 11 11 12 13 14 15 16 16 16 16 16 16 15 15 15
13 13 13 13 13 13 13 13 13 13 13 14 14 15 16 16 15 15 16 18 19 18 17 17 16 15 14 14 14 14 14 14 13 13 12 12 12 12 12 11 9 8 8 8 8 7 6 5 4 3 2 2 1 2 3 5 6 7 8 8 7 6 7 9 10 10 9 8 9 10 11 11 12 13 13 15 16 16 16 16 16 15 15 15 15
Wind_Direction
187 186 183 178 175 176 179 179 179 180 179 172 166 167 165 162 161 159 159 157 154 154 154 153 153 148 144 141 137 135 133 130 128 126 125 125 125 128 131 131 125 122 124 124 122 125 125 123 121 118 118 118 121 121 113 106 101 97 99 96 90 84 81 93 108 118 121 122 121 106 84 86 69 48 48 37 6 9 21 6 5 16 3 316 315
183 185 182 180 180 183 186 185 184 183 182 177 175 174 170 168 168 166 167 166 160 158 158 158 157 154 151 150 148 145 143 141 138 135 134 134 134 138 142 142 136 135 137 134 133 134 134 135 133 130 129 129 135 135 128 129 125 112 105 102 98 88 85 97 109 121 130 139 149 138 104 50 38 50 36 28 10 343 326 332 334 343 356 350 318
175 182 185 189 192 195 194 188 183 180 179 179 181 181 176 174 174 173 173 172 166 163 162 162 161 159 158 157 155 153 150 149 148 147 146 147 148 149 151 151 149 149 151 149 146 145 146 147 144 143 144 143 147 140 133 145 139 118 107 98 97 89 78 77 93 116 130 140 158 164 140 116 352 18 345 314 325 332 325 323 324 315 332 347 336
173 181 183 187 192 197 196 189 184 184 185 188 191 191 185 181 182 183 178 174 171 168 166 166 166 164 163 162 160 159 157 156 156 156 156 156 157 156 157 159 160 161 163 159 156 156 158 158 156 157 156 154 158 157 154 163 150 133 132 124 113 96 77 59 54 114 135 141 148 148 135 177 211 354 341 317 297 306 315 315 313 303 311 333 335
163 168 171 174 178 189 193 189 189 193 198 204 203 199 194 189 188 188 185 179 175 173 171 171 172 172 171 169 165 162 162 163 164 164 163 162 160 161 163 166 170 173 174 172 171 172 171 171 170 168 168 167 167 167 165 169 166 160 167 162 143 121 96 74 54 58 149 142 144 148 145 186 247 302 334 337 326 312 321 328 318 305 308 323 326
138 149 163 168 171 182 191 196 199 200 205 211 211 209 207 202 195 193 193 187 181 181 180 177 178 180 180 174 169 168 168 168 169 167 166 166 167 168 170 175 182 185 187 190 191 190 190 190 186 183 183 180 174 169 160 163 180 167 170 216 168 132 133 136 120 259 274 130 143 164 170 200 305 299 315 336 331 319 328 334 329 320 320 324 325
124 132 144 157 169 181 190 201 208 211 215 217 220 221 220 216 208 200 197 194 191 190 189 187 186 185 183 180 177 175 173 171 170 169 168 168 169 171 175 182 189 194 199 204 204 204 205 204 199 197 197 192 184 178 172 173 184 174 163 273 274 215 197 215 211 231 261 272 265 255 219 227 282 303 319 332 325 325 337 337 331 328 327 325 323
108 119 127 134 148 166 182 201 211 216 217 217 220 222 221 221 214 203 197 198 200 198 194 192 191 188 186 187 185 181 179 179 175 173 175 175 173 177 182 190 200 206 211 215 215 216 215 214 212 209 205 202 198 193 189 187 186 190 197 215 242 241 233 238 246 249 257 280 294 300 298 292 290 305 327 335 331 334 341 335 325 324 325 323 321
80 96 107 106 109 135 160 186 206 213 213 213 215 216 218 216 209 204 201 200 203 201 195 193 192 192 190 188 189 187 185 185 182 180 183 186 189 193 195 201 216 227 232 231 227 225 224 222 219 214 211 215 220 218 214 210 200 196 202 206 212 225 237 244 253 264 270 284 296 302 303 304 307 319 330 335 335 332 331 326 319 320 321 318 318
66 70 78 80 86 116 141 162 198 212 213 215 216 218 220 214 206 207 207 205 203 198 193 193 193 192 189 190 194 194 193 196 196 195 194 193 198 203 206 213 226 238 244 242 236 232 230 226 224 223 224 228 236 235 229 225 219 208 201 203 206 210 225 246 258 270 281 289 298 307 311 312 319 327 324 328 332 325 323 322 317 317 318 315 316
63 60 59 62 71 95 119 144 186 215 223 226 226 226 225 217 210 213 211 207 202 196 197 200 198 194 192 195 197 195 196 200 203 210 213 212 211 213 217 222 229 236 241 241 239 236 232 225 223 231 236 233 233 234 232 229 227 219 208 208 214 211 209 233 256 261 279 293 303 313 312 311 316 315 314 325 331 323 320 318 312 313 317 315 314
61 59 58 55 56 65 80 128 204 227 234 239 238 234 230 223 219 216 206 198 196 198 202 204 204 202 200 200 200 198 201 207 214 222 222 220 223 224 222 224 230 236 239 239 238 236 231 225 217 223 235 230 222 226 231 229 225 222 217 217 222 218 208 216 234 242 291 307 305 304 304 308 315 317 318 325 324 318 313 310 309 310 310 307 305
59 59 58 56 56 57 49 316 253 243 244 247 240 232 230 226 221 215 204 197 196 201 207 207 210 213 210 211 214 215 221 229 232 227 221 226 237 235 224 221 228 233 233 233 235 230 224 223 214 210 223 227 214 212 223 227 222 220 220 219 222 220 214 215 222 230 267 301 292 290 293 303 311 315 311 307 310 311 308 306 307 306 301 298 297
57 55 52 50 50 50 52 51 312 259 252 253 247 240 235 227 217 209 204 201 197 207 223 221 216 219 222 228 232 233 236 238 234 227 226 231 235 229 217 211 213 218 220 221 224 221 219 221 219 214 209 213 213 206 209 220 220 215 211 210 215 216 213 213 222 239 266 277 280 294 300 297 302 307 304 303 304 304 302 302 302 300 295 292 289
49 46 41 39 36 35 37 39 31 7 252 248 249 245 238 229 220 210 204 206 210 224 236 231 225 228 231 235 237 235 237 237 230 225 225 222 217 211 204 195 194 202 208 207 207 213 215 215 227 229 211 208 218 203 194 205 209 200 191 186 187 190 193 203 218 234 241 232 246 269 270 272 282 287 289 294 296 293 292 292 291 289 286 287 286
35 32 26 21 17 16 20 24 23 15 333 274 257 252 243 231 221 210 204 212 222 230 231 228 230 232 230 229 227 227 233 234 227 220 215 209 201 194 189 187 189 192 189 182 182 187 190 198 216 221 204 208 217 201 185 183 180 174 171 168 165 178 198 213 227 240 246 250 254 256 260 270 278 281 282 285 287 290 292 290 286 283 284 288 291
22 19 11 4 358 354 355 358 359 0 349 319 280 263 255 240 222 209 206 215 226 227 221 222 226 222 218 219 215 215 224 222 212 203 200 195 189 186 190 196 194 187 175 161 155 159 167 177 180 174 179 197 206 194 178 170 166 165 167 167 163 175 203 220 237 252 256 262 266 267 270 277 284 288 291 293 295 298 296 291 290 293 292 292 294
6 2 357 350 344 338 335 332 330 330 329 322 305 280 263 248 227 214 211 214 219 217 208 207 214 211 209 208 201 199 206 201 191 190 192 190 186 189 201 201 188 180 169 152 140 148 165 166 154 152 172 184 185 175 164 162 165 168 168 169 167 171 194 219 244 262 267 273 281 285 290 297 300 303 304 303 306 308 296 284 291 297 292 290 294
348 345 341 336 332 329 326 322 318 313 311 313 311 293 272 253 233 216 210 207 206 203 196 195 197 192 190 188 182 179 187 189 186 189 194 195 193 196 208 202 187 183 175 154 138 138 149 155 151 148 149 151 155 158 156 156 167 174 172 177 180 172 172 187 207 237 261 276 285 292 300 305 307 307 302 299 305 309 295 278 284 291 289 290 294
330 327 325 323 320 319 318 314 310 306 302 302 303 292 272 254 235 217 208 202 193 187 188 187 180 170 168 171 169 167 173 182 186 190 195 200 199 199 208 207 192 187 180 162 146 137 134 141 146 139 133 138 144 153 158 160 162 167 172 183 181 165 160 178 202 221 240 260 272 279 285 288 286 282 280 283 292 296 286 273 277 286 290 292 292
319 317 315 313 311 309 310 310 307 301 293 289 290 283 266 250 233 218 212 202 186 180 181 178 168 160 159 164 167 171 175 178 185 192 197 201 200 200 208 215 201 189 179 169 159 144 135 143 152 148 146 151 152 160 170 172 166 164 173 184 184 176 167 182 238 270 270 269 278 283 285 284 280 279 280 279 279 280 277 274 278 284 288 289 289
312 311 308 306 306 304 302 300 300 297 288 282 279 274 261 248 234 223 214 199 183 177 175 171 166 162 159 159 162 168 173 175 181 189 194 201 204 201 200 202 193 184 176 170 162 146 139 150 159 157 157 161 164 168 176 180 180 182 183 186 194 199 179 174 264 287 281 278 285 289 289 290 289 288 287 286 285 285 284 283 284 285 283 282 283
300 299 298 297 297 295 293 291 290 286 282 277 273 266 258 247 237 227 215 202 194 188 181 176 171 167 163 162 163 164 166 169 173 178 184 192 198 196 195 192 184 179 176 170 157 144 147 156 159 158 159 164 168 169 173 178 180 178 173 177 191 186 132 190 256 278 282 285 289 290 291 294 295 294 293 294 296 298 296 291 288 286 283 280 279
289 286 283 283 284 283 282 281 279 276 275 273 267 259 253 245 237 229 222 214 208 201 192 186 181 174 169 168 170 170 169 169 170 173 176 179 182 188 193 189 179 173 172 164 150 146 155 160 159 160 166 169 169 168 167 167 162 152 148 138 69 69 101 223 261 280 281 282 287 292 296 297 296 296 299 302 302 301 299 294 290 287 285 284 282
284 279 276 274 273 272 273 272 270 268 267 265 262 257 249 241 234 228 224 219 214 208 202 196 193 188 179 173 172 172 171 173 174 173 171 169 171 175 180 179 175 168 157 153 155 158 162 163 161 165 171 170 164 159 152 143 136 125 98 75 73 80 121 264 281 289 288 290 294 299 301 298 293 296 302 302 301 301 300 297 294 292 290 288 287
287 282 278 273 269 267 266 265 264 262 259 256 256 254 248 242 235 227 222 220 218 215 209 203 200 196 187 179 175 169 166 171 176 176 174 170 168 170 172 175 176 173 166 165 167 165 160 159 162 163 161 154 147 147 143 129 111 88 77 82 96 123 250 307 304 295 298 306 304 302 302 298 293 297 302 300 298 299 299 298 296 295 294 294 294
289 288 284 280 275 268 263 260 259 257 254 251 249 247 245 241 237 230 224 221 220 219 214 210 209 207 197 184 175 168 165 167 172 173 174 175 174 173 173 174 176 175 171 167 164 160 158 160 162 160 154 149 147 145 134 115 103 96 96 104 121 133 92 28 348 310 301 311 309 303 304 302 299 303 306 302 298 298 298 297 296 295 296 297 295
289 289 287 285 281 275 268 262 257 254 252 249 246 245 242 238 235 232 227 221 219 217 214 212 215 214 203 188 178 173 172 175 179 180 181 182 180 175 173 173 169 161 158 156 156 158 159 157 155 153 150 150 152 151 141 134 135 141 142 145 153 148 47 1 352 324 300 312 312 305 305 308 308 310 309 304 301 301 301 300 297 295 297 297 294
287 286 285 283 279 276 273 266 258 254 253 250 247 243 238 232 231 230 228 225 223 217 209 207 214 213 190 173 169 177 182 187 193 194 191 187 182 175 170 167 159 155 162 165 160 155 152 151 153 155 156 159 164 164 159 153 151 144 138 149 167 161 342 334 332 325 319 318 314 309 311 313 313 312 309 305 304 304 304 302 299 296 296 295 292
283 282 282 280 277 275 273 270 265 259 253 249 247 242 236 232 232 229 226 227 230 228 219 212 214 215 195 174 180 220 230 229 223 211 200 191 184 177 170 166 164 169 175 171 160 150 151 157 162 164 167 172 175 171 162 158 158 153 147 152 160 119 348 330 329 330 323 315 308 310 315 315 312 309 307 305 304 305 305 303 299 297 296 294 292
280 277 276 277 277 276 273 271 269 266 258 250 245 241 236 233 233 233 229 223 224 230 229 219 215 218 217 213 226 244 253 259 250 225 202 191 188 183 177 175 178 182 178 167 155 152 160 165 165 168 174 175 171 164 160 159 162 161 157 161 166 126 340 332 331 326 318 313 315 318 319 316 311 309 307 305 304 304 305 304 301 299 297 295 294
277 274 272 271 272 272 271 270 268 265 262 255 246 242 238 231 227 231 232 227 222 224 225 218 213 216 220 220 226 237 246 250 241 219 195 185 183 182 181 180 181 180 172 163 157 162 169 169 166 168 171 168 161 158 158 157 156 158 162 168 166 355 340 328 323 319 317 319 322 321 318 314 312 310 308 306 304 304 305 306 304 302 299 297 295
276 273 270 268 266 264 264 266 265 262 260 255 247 242 239 234 226 215 212 218 221 221 221 221 219 220 225 228 228 234 241 239 224 203 189 180 176 175 176 175 173 169 165 162 163 166 167 166 164 163 164 163 157 154 156 156 152 150 151 144 347 340 333 325 320 317 317 319 319 318 317 316 315 313 310 307 306 305 306 306 306 304 301 298 297
273 271 267 264 263 260 259 261 262 261 260 256 248 241 237 235 231 216 190 181 192 202 210 220 225 230 238 240 233 228 229 222 206 192 182 174 172 173 169 164 163 163 161 162 167 165 160 159 160 160 159 157 154 154 155 153 149 149 150 63 337 331 333 330 325 322 321 320 320 320 321 320 318 316 313 310 308 307 306 306 306 304 301 299 299
273 270 266 262 260 257 254 255 257 260 262 260 252 242 235 231 231 224 203 184 179 176 175 188 205 223 235 230 218 213 212 203 191 183 176 172 172 170 161 154 156 160 162 166 166 160 157 158 157 156 155 153 152 153 153 149 147 151 144 7 336 334 335 332 329 327 322 321 324 326 325 323 321 318 314 311 309 307 306 305 303 301 299 299 299
275 271 267 262 257 253 250 249 249 252 256 260 259 248 236 229 227 224 215 204 196 184 173 175 178 179 193 201 195 192 193 190 183 178 174 172 170 164 156 152 157 162 165 167 162 156 154 155 154 153 153 152 151 151 150 149 151 144 92 348 334 337 338 335 336 335 328 326 331 332 328 326 324 321 317 312 308 306 305 303 301 298 296 295 296
287 285 280 267 254 247 246 244 242 245 250 256 260 252 237 228 226 222 216 207 190 173 167 172 171 163 163 176 177 171 176 181 179 175 172 169 166 161 155 154 158 161 163 161 156 152 150 150 150 150 149 147 150 150 147 145 144 126 34 336 331 336 332 328 332 334 329 331 337 336 331 329 328 324 320 315 310 307 305 303 301 298 294 293 294
298 301 301 289 263 247 242 238 237 242 247 249 252 250 237 226 222 219 211 193 164 149 150 161 167 160 157 163 173 174 172 171 168 163 163 165 165 163 160 157 157 158 158 154 151 150 147 145 145 146 145 145 146 144 140 136 126 88 355 334 329 327 323 321 322 322 323 332 340 338 332 331 330 327 322 316 310 307 306 305 303 299 297 297 297
307 310 318 317 286 251 240 235 235 246 251 245 241 242 235 223 218 218 210 188 160 148 147 150 162 166 160 162 170 173 168 164 162 159 161 166 170 166 159 156 154 152 149 147 146 145 142 140 140 139 139 140 140 137 133 123 94 25 346 340 334 328 328 330 331 331 334 340 343 339 333 331 329 325 321 316 312 310 309 309 307 303 300 298 298
321 319 326 331 309 252 236 234 239 253 261 250 235 227 220 215 214 215 209 192 167 155 152 148 149 161 168 171 170 165 161 164 166 163 163 167 169 162 154 151 148 144 143 143 143 142 139 136 136 135 134 136 135 129 119 102 45 358 351 345 336 330 330 333 340 346 346 344 341 337 333 331 327 322 320 318 313 310 309 309 310 309 304 298 298
336 336 339 341 334 271 238 236 241 254 260 252 233 212 201 203 209 208 202 188 166 157 159 153 143 152 171 177 171 163 159 162 165 164 163 162 157 150 146 143 139 138 138 137 136 135 132 129 131 134 134 134 131 121 108 82 25 3 359 350 339 336 336 337 347 354 349 344 340 336 331 328 324 320 318 317 313 310 310 312 314 315 310 303 301
341 350 358 359 356 334 253 229 240 253 252 243 226 189 166 170 183 186 180 169 155 150 153 147 136 147 167 171 163 155 150 149 148 150 152 149 142 138 137 136 134 134 132 129 127 126 124 125 131 134 132 129 123 112 96 63 29 13 1 350 345 345 343 344 351 353 347 342 338 333 327 324 322 319 318 318 317 316 315 316 317 317 314 309 307
348 355 7 16 15 9 14 191 213 221 199 152 94 61 62 75 95 117 128 131 129 129 129 124 119 133 153 158 154 148 147 148 148 147 147 145 140 135 132 131 129 125 121 117 116 117 121 126 129 128 124 118 106 94 79 52 33 19 1 353 354 350 347 350 352 348 342 339 336 333 328 324 322 320 321 322 322 319 318 319 321 321 318 314 313
8 5 11 26 45 65 82 96 102 100 100 98 89 76 70 74 86 93 101 114 120 121 121 120 120 129 142 150 151 149 150 152 152 151 148 144 138 132 128 125 122 119 116 113 112 114 121 126 125 120 118 112 101 90 75 56 44 28 6 0 3 353 345 347 347 344 343 342 340 335 331 328 326 324 323 324 324 323 323 324 325 324 320 318 316
24 20 23 32 44 59 74 88 96 95 92 88 84 81 76 74 77 80 92 114 120 117 117 120 125 130 136 141 142 138 138 140 142 142 141 138 133 129 126 123 120 117 115 111 110 114 119 123 123 120 115 107 101 92 74 56 49 38 25 23 20 2 348 348 347 344 344 345 341 330 325 326 326 326 325 325 326 326 326 326 326 324 322 320 319
29 29 33 39 37 36 41 50 65 76 76 73 74 75 76 79 82 86 103 118 116 113 115 120 123 124 127 129 127 122 121 125 126 129 134 135 131 126 125 123 121 120 117 115 116 120 120 119 120 121 116 110 108 102 77 47 34 27 24 24 21 10 359 354 350 346 346 347 342 331 325 323 322 323 327 327 327 326 326 326 325 325 324 322 322
33 34 37 43 46 43 42 44 51 59 63 65 69 73 79 88 94 96 97 99 101 105 111 117 119 117 120 126 129 126 124 124 125 127 129 128 124 122 124 124 122 120 118 115 117 122 125 125 127 126 120 115 113 104 83 50 22 13 12 12 11 8 2 356 352 351 353 351 345 340 337 329 321 324 330 330 328 329 328 327 327 328 326 325 326
35 36 38 41 46 50 51 54 58 61 63 66 70 73 76 83 88 89 88 91 96 100 103 105 108 110 116 123 128 129 129 131 131 130 128 125 123 123 125 126 124 122 120 119 122 129 135 139 140 134 120 114 114 99 70 43 23 13 4 358 359 1 360 357 354 353 353 351 348 347 344 332 318 322 330 332 331 331 330 329 330 331 329 328 330
38 40 41 43 47 50 52 55 60 63 65 68 70 72 73 76 80 84 89 92 92 92 93 97 103 110 116 121 124 126 128 129 128 125 123 123 124 126 130 129 123 118 119 126 136 144 147 147 148 141 124 118 125 101 52 27 15 9 2 354 351 353 356 358 355 349 349 352 351 350 348 337 321 321 329 333 334 334 332 332 332 332 331 332 333
44 44 43 43 46 49 53 57 61 63 64 66 68 69 72 74 76 79 85 88 87 87 91 97 101 104 107 112 117 119 119 119 117 115 115 117 121 129 138 140 133 127 131 140 147 151 152 150 150 151 150 151 135 42 23 10 3 0 357 354 350 348 352 357 355 348 347 351 349 349 351 343 327 322 328 334 336 336 336 336 335 335 334 335 336
50 51 50 49 49 49 51 55 59 61 62 64 67 69 70 72 73 76 81 86 87 87 88 91 94 96 97 101 105 108 109 109 109 110 111 114 116 123 132 139 140 141 144 146 147 151 156 157 161 172 181 178 119 28 9 357 353 351 350 349 348 343 346 354 356 352 348 347 347 350 351 340 325 321 328 335 338 338 338 338 338 337 338 340 341